Date,TemperatureHighF,TemperatureAvgF,TemperatureLowF,DewpointHighF,DewpointAvgF,DewpointLowF,HumidityHigh,HumidityAvg,HumidityLow,PressureMaxIn,PressureMinIn,WindSpeedMaxMPH,WindSpeedAvgMPH,GustSpeedMaxMPH,PrecipitationSumIn
2013-3-1,35,31,26,31,28,22,98,89,77,29.85,29.65,7,2,14,0.01
2013-3-2,27,23,18,23,19,15,90,85,79,29.86,29.81,7,2,11,0.00
2013-3-3,26,21,17,20,17,14,92,86,74,29.84,29.78,8,2,14,0.01
2013-3-4,25,23,21,24,21,19,94,90,82,29.97,29.82,9,3,16,0.00
2013-3-5,36,27,22,26,22,19,94,82,65,30.10,29.98,4,1,7,0.01
2013-3-6,39,31,21,30,25,19,95,77,64,30.14,30.02,14,3,22,0.00
2013-3-7,37,32,26,27,24,21,92,73,59,30.20,30.12,8,2,12,0.00
2013-3-8,39,30,25,27,24,21,94,79,58,30.36,30.16,6,2,13,0.19
2013-3-9,45,31,18,27,23,16,93,74,48,30.39,30.31,5,1,10,0.00
2013-3-10,51,39,23,28,25,19,88,59,34,30.32,30.11,8,2,12,0.00
2013-3-11,48,42,38,40,32,27,75,69,61,30.17,29.85,15,4,25,0.00
2013-3-12,48,40,32,45,38,31,97,91,76,29.88,29.76,12,3,17,0.63
2013-3-13,39,32,24,31,27,21,95,85,58,29.89,29.80,7,2,13,0.00
2013-3-14,25,21,15,22,15,10,91,79,55,29.98,29.85,11,6,18,0.02
2013-3-15,33,24,9,31,20,5,94,83,67,30.00,29.67,9,2,12,0.03
2013-3-16,29,22,10,21,13,6,88,70,45,29.96,29.83,6,1,13,0.02
2013-3-17,30,20,8,14,10,4,91,67,47,30.36,29.96,13,2,19,0.00
2013-3-18,31,20,6,24,10,2,93,68,41,30.43,29.96,18,6,26,0.00
2013-3-19,33,28,23,30,26,20,95,91,87,29.95,29.69,17,6,25,0.09
2013-3-20,32,25,19,24,20,16,91,81,58,29.81,29.77,9,3,19,0.04
2013-3-21,32,23,8,18,13,5,93,68,44,29.81,29.70,8,2,13,0.00
2013-3-22,28,25,22,26,22,16,95,89,73,29.85,29.68,11,3,16,0.06
2013-3-23,35,29,25,26,24,20,95,80,59,29.94,29.82,15,5,18,0.06
2013-3-24,39,32,24,23,22,19,86,69,50,29.93,29.76,8,2,14,0.00
2013-3-25,42,33,24,28,23,20,85,68,49,29.76,29.56,6,1,11,0.00
2013-3-26,43,36,29,29,25,20,86,66,42,29.89,29.64,8,1,13,0.00
2013-3-27,44,36,30,33,28,25,88,75,56,29.99,29.86,11,3,14,0.00
2013-3-28,44,37,32,34,32,30,96,83,64,30.15,29.98,8,2,13,0.00
2013-3-29,42,37,32,34,31,27,88,79,66,30.16,30.09,6,2,11,0.00
2013-3-30,49,37,27,32,26,21,93,69,35,30.18,30.09,7,1,13,0.00
2013-3-31,52,39,24,39,29,21,92,71,42,30.10,29.68,13,4,24,0.07